status,avgMeasuredTime,avgSpeed,extID,medianMeasuredTime,TIMESTAMP,vehicleCount,_id,REPORT_ID
OK,88,33,786,88,2014-08-01T07:55:00,3,20746510,195204
OK,101,29,786,101,2014-08-01T08:00:00,3,20746841,195204
OK,91,32,786,91,2014-08-01T08:05:00,7,20747290,195204
OK,88,33,786,88,2014-08-01T08:10:00,7,20747663,195204
OK,89,33,786,89,2014-08-01T08:15:00,5,20748112,195204
OK,88,33,786,88,2014-08-01T08:20:00,6,20748561,195204
OK,87,34,786,87,2014-08-01T08:25:00,6,20749010,195204
OK,89,33,786,89,2014-08-01T08:30:00,8,20749459,195204
OK,90,33,786,90,2014-08-01T08:35:00,4,20749908,195204
OK,77,38,786,77,2014-08-01T08:40:00,3,20750357,195204
OK,80,37,786,80,2014-08-01T08:45:00,10,20750806,195204
OK,89,33,786,89,2014-08-01T08:50:00,9,20751255,195204
OK,85,34,786,85,2014-08-01T08:55:00,7,20751704,195204
OK,86,34,786,86,2014-08-01T09:00:00,6,20752153,195204
OK,92,32,786,92,2014-08-01T09:05:00,4,20752602,195204
OK,86,34,786,86,2014-08-01T09:10:00,9,20753051,195204
OK,88,33,786,88,2014-08-01T09:15:00,17,20753500,195204
OK,91,32,786,91,2014-08-01T09:20:00,13,20753949,195204
OK,86,34,786,86,2014-08-01T09:25:00,5,20754398,195204
OK,85,34,786,85,2014-08-01T09:30:00,7,20754847,195204
OK,85,34,786,85,2014-08-01T09:35:00,14,20755296,195204
OK,88,33,786,88,2014-08-01T09:40:00,11,20755745,195204
OK,72,41,786,72,2014-08-01T09:45:00,8,20756194,195204
OK,80,37,786,80,2014-08-01T09:50:00,9,20756643,195204
OK,94,31,786,94,2014-08-01T09:55:00,5,20757092,195204
OK,75,39,786,75,2014-08-01T10:00:00,5,20757541,195204
OK,75,39,786,75,2014-08-01T10:05:00,7,20757990,195204
OK,88,33,786,88,2014-08-01T10:10:00,5,20758439,195204
OK,88,33,786,88,2014-08-01T10:15:00,8,20758888,195204
OK,87,34,786,87,2014-08-01T10:20:00,4,20759337,195204
OK,70,42,786,70,2014-08-01T10:25:00,2,20759786,195204
OK,85,34,786,85,2014-08-01T10:30:00,4,20760235,195204
OK,85,34,786,85,2014-08-01T10:35:00,7,20760684,195204
OK,91,32,786,91,2014-08-01T10:40:00,9,20761133,195204
OK,91,32,786,91,2014-08-01T10:45:00,5,20761582,195204
OK,83,35,786,83,2014-08-01T10:50:00,5,20762031,195204
OK,83,35,786,83,2014-08-01T10:55:00,7,20762480,195204
OK,83,35,786,83,2014-08-01T11:00:00,9,20762929,195204
OK,87,34,786,87,2014-08-01T11:05:00,13,20763378,195204
OK,87,34,786,87,2014-08-01T11:10:00,13,20763827,195204
OK,85,34,786,85,2014-08-01T11:15:00,10,20764275,195204
OK,83,35,786,83,2014-08-01T11:20:00,5,20764724,195204
OK,89,33,786,89,2014-08-01T11:25:00,2,20765173,195204
OK,89,33,786,89,2014-08-01T11:30:00,2,20765622,195204
OK,99,30,786,99,2014-08-01T11:35:00,6,20766071,195204
OK,88,33,786,88,2014-08-01T11:40:00,9,20766520,195204
OK,93,31,786,93,2014-08-01T11:45:00,10,20766969,195204
OK,93,31,786,93,2014-08-01T11:50:00,7,20767418,195204
OK,84,35,786,84,2014-08-01T11:55:00,5,20767867,195204
OK,85,34,786,85,2014-08-01T12:00:00,6,20768316,195204
OK,84,35,786,84,2014-08-01T12:05:00,7,20768765,195204
OK,87,34,786,87,2014-08-01T12:10:00,4,20769214,195204
OK,82,36,786,82,2014-08-01T12:15:00,6,20769663,195204
OK,93,31,786,93,2014-08-01T12:20:00,6,20770112,195204
OK,93,31,786,93,2014-08-01T12:25:00,8,20770561,195204
OK,93,31,786,93,2014-08-01T12:30:00,9,20771010,195204
OK,94,31,786,94,2014-08-01T12:35:00,5,20771459,195204
OK,94,31,786,94,2014-08-01T12:40:00,9,20771908,195204
OK,100,29,786,100,2014-08-01T12:45:00,7,20772357,195204
OK,98,30,786,98,2014-08-01T12:50:00,7,20772806,195204
OK,98,30,786,98,2014-08-01T12:55:00,11,20773255,195204
OK,95,31,786,95,2014-08-01T13:00:00,12,20773704,195204
OK,95,31,786,95,2014-08-01T13:05:00,9,20774153,195204
OK,99,30,786,99,2014-08-01T13:10:00,7,20774602,195204
OK,91,32,786,91,2014-08-01T13:15:00,5,20775051,195204
OK,88,33,786,88,2014-08-01T13:20:00,7,20775500,195204
OK,88,33,786,88,2014-08-01T13:25:00,7,20775949,195204
OK,85,34,786,85,2014-08-01T13:30:00,3,20776398,195204
OK,85,34,786,85,2014-08-01T13:35:00,5,20776847,195204
OK,84,35,786,84,2014-08-01T13:40:00,9,20777296,195204
OK,85,34,786,85,2014-08-01T13:45:00,10,20777745,195204
OK,83,35,786,83,2014-08-01T13:50:00,8,20778194,195204
OK,78,38,786,78,2014-08-01T13:55:00,4,20778643,195204
OK,82,36,786,82,2014-08-01T14:00:00,5,20779092,195204
OK,82,36,786,82,2014-08-01T14:05:00,9,20779541,195204
OK,85,34,786,85,2014-08-01T14:10:00,4,20779990,195204
OK,84,35,786,84,2014-08-01T14:15:00,5,20780439,195204
OK,69,43,786,69,2014-08-01T14:20:00,6,20780888,195204
OK,49,60,786,49,2014-08-01T14:25:00,3,20781337,195204
OK,66,45,786,66,2014-08-01T14:30:00,2,20781786,195204
OK,91,32,786,91,2014-08-01T14:35:00,6,20782235,195204
OK,91,32,786,91,2014-08-01T14:40:00,8,20782684,195204
OK,86,34,786,86,2014-08-01T14:45:00,5,20783133,195204
OK,70,42,786,70,2014-08-01T14:50:00,2,20783582,195204
OK,93,31,786,93,2014-08-01T14:55:00,2,20784031,195204
OK,87,34,786,87,2014-08-01T15:00:00,7,20784480,195204
OK,73,40,786,73,2014-08-01T15:05:00,6,20784929,195204
OK,80,37,786,80,2014-08-01T15:10:00,3,20785378,195204
OK,82,36,786,82,2014-08-01T15:15:00,5,20785827,195204
OK,77,38,786,77,2014-08-01T15:20:00,6,20786276,195204
OK,69,43,786,69,2014-08-01T15:25:00,2,20786725,195204
OK,59,50,786,59,2014-08-01T15:30:00,4,20787174,195204
OK,81,36,786,81,2014-08-01T15:35:00,8,20787623,195204
OK,96,30,786,96,2014-08-01T15:40:00,4,20788072,195204
OK,66,45,786,66,2014-08-01T15:45:00,2,20788521,195204
OK,89,33,786,89,2014-08-01T15:50:00,4,20788970,195204
OK,89,33,786,89,2014-08-01T15:55:00,3,20789419,195204
OK,73,40,786,73,2014-08-01T16:00:00,1,20789868,195204
OK,74,40,786,74,2014-08-01T16:05:00,3,20790317,195204
OK,77,38,786,77,2014-08-01T16:10:00,4,20790766,195204
OK,74,40,786,74,2014-08-01T16:15:00,2,20791215,195204
OK,53,56,786,53,2014-08-01T16:20:00,4,20791664,195204
OK,64,46,786,64,2014-08-01T16:25:00,8,20792113,195204
OK,76,39,786,76,2014-08-01T16:30:00,4,20792562,195204
OK,41,72,786,41,2014-08-01T16:35:00,1,20793011,195204
OK,80,37,786,80,2014-08-01T16:40:00,1,20793460,195204
OK,80,37,786,80,2014-08-01T16:45:00,3,20793909,195204
OK,80,37,786,80,2014-08-01T16:50:00,3,20794358,195204
OK,72,41,786,72,2014-08-01T16:55:00,2,20794807,195204
OK,88,33,786,88,2014-08-01T17:00:00,1,20795256,195204
OK,88,33,786,88,2014-08-01T17:05:00,0,20795705,195204
OK,88,33,786,88,2014-08-01T17:10:00,1,20796154,195204
OK,48,61,786,48,2014-08-01T17:15:00,3,20796603,195204
OK,52,57,786,52,2014-08-01T17:20:00,3,20797052,195204
OK,85,34,786,85,2014-08-01T17:25:00,1,20797501,195204
OK,80,37,786,80,2014-08-01T17:30:00,3,20797950,195204
OK,80,37,786,80,2014-08-01T17:35:00,3,20798399,195204
OK,79,37,786,79,2014-08-01T17:40:00,0,20798848,195204
OK,49,60,786,49,2014-08-01T17:45:00,1,20799297,195204
OK,49,60,786,49,2014-08-01T17:50:00,3,20799746,195204
OK,51,58,786,51,2014-08-01T17:55:00,4,20800195,195204
OK,64,46,786,64,2014-08-01T18:00:00,4,20800644,195204
OK,85,34,786,85,2014-08-01T18:05:00,2,20801093,195204
OK,76,39,786,76,2014-08-01T18:10:00,0,20801542,195204
OK,49,60,786,49,2014-08-01T18:15:00,1,20801991,195204
OK,49,60,786,49,2014-08-01T18:20:00,0,20802440,195204
OK,49,60,786,49,2014-08-01T18:25:00,0,20802889,195204
OK,49,60,786,49,2014-08-01T18:30:00,0,20803338,195204
OK,86,34,786,86,2014-08-01T18:35:00,1,20803787,195204
OK,81,36,786,81,2014-08-01T18:40:00,2,20804236,195204
OK,61,48,786,61,2014-08-01T18:45:00,1,20804685,195204
OK,68,43,786,68,2014-08-01T18:50:00,1,20805134,195204
OK,72,41,786,72,2014-08-01T18:55:00,2,20805583,195204
OK,76,39,786,76,2014-08-01T19:00:00,0,20806032,195204
OK,76,39,786,76,2014-08-01T19:05:00,0,20806481,195204
OK,83,35,786,83,2014-08-01T19:10:00,1,20806930,195204
OK,39,76,786,39,2014-08-01T19:15:00,4,20807379,195204
OK,38,78,786,38,2014-08-01T19:20:00,2,20807828,195204
OK,63,47,786,63,2014-08-01T19:25:00,1,20808277,195204
OK,63,47,786,63,2014-08-01T19:30:00,0,20808726,195204
OK,80,37,786,80,2014-08-01T19:35:00,1,20809175,195204
OK,80,37,786,80,2014-08-01T19:40:00,1,20809624,195204
OK,82,36,786,82,2014-08-01T19:45:00,3,20810073,195204
OK,75,39,786,75,2014-08-01T19:50:00,5,20810522,195204
OK,73,40,786,73,2014-08-01T19:55:00,2,20810971,195204
OK,137,21,786,137,2014-08-01T21:20:00,1,20814757,195204
OK,71,41,786,71,2014-08-01T22:00:00,0,20816700,195204
OK,71,41,786,71,2014-08-01T22:05:00,1,20817149,195204
OK,51,58,786,51,2014-08-01T22:10:00,2,20817471,195204
OK,63,47,786,63,2014-08-01T22:15:00,2,20817900,195204
OK,94,31,786,94,2014-08-01T22:20:00,3,20818190,195204
OK,90,33,786,90,2014-08-01T22:25:00,4,20818506,195204
OK,43,69,786,43,2014-08-01T23:40:00,1,20822025,195204
OK,43,69,786,43,2014-08-01T23:45:00,1,20822248,195204
OK,38,78,786,38,2014-08-02T00:00:00,1,20823139,195204
OK,38,78,786,38,2014-08-02T00:05:00,1,20823588,195204
OK,84,35,786,84,2014-08-02T00:10:00,0,20824037,195204
OK,89,33,786,89,2014-08-02T00:15:00,1,20824486,195204
OK,89,33,786,89,2014-08-02T00:20:00,1,20824935,195204
OK,71,41,786,71,2014-08-02T00:25:00,0,20825384,195204
OK,71,41,786,71,2014-08-02T00:30:00,0,20825833,195204
OK,33,90,786,33,2014-08-02T00:35:00,2,20826282,195204
OK,36,82,786,36,2014-08-02T00:40:00,2,20826731,195204
OK,68,43,786,68,2014-08-02T00:45:00,1,20827180,195204
OK,61,48,786,61,2014-08-02T00:50:00,2,20827629,195204
OK,55,54,786,55,2014-08-02T00:55:00,1,20828078,195204
OK,59,50,786,59,2014-08-02T01:00:00,2,20828527,195204
OK,62,47,786,62,2014-08-02T01:05:00,1,20828976,195204
OK,62,47,786,62,2014-08-02T01:10:00,0,20829425,195204
OK,50,59,786,50,2014-08-02T01:15:00,1,20829874,195204
OK,50,59,786,50,2014-08-02T01:20:00,1,20830323,195204
OK,41,72,786,41,2014-08-02T01:25:00,1,20830772,195204
OK,51,58,786,51,2014-08-02T01:30:00,2,20831221,195204
OK,61,48,786,61,2014-08-02T01:35:00,0,20831670,195204
OK,61,48,786,61,2014-08-02T01:40:00,0,20832119,195204
OK,55,54,786,55,2014-08-02T01:45:00,1,20832568,195204
OK,70,42,786,70,2014-08-02T01:50:00,1,20833017,195204
OK,70,42,786,70,2014-08-02T01:55:00,1,20833466,195204
OK,70,42,786,70,2014-08-02T02:00:00,0,20833915,195204
OK,70,42,786,70,2014-08-02T02:05:00,0,20834364,195204
OK,70,42,786,70,2014-08-02T02:10:00,0,20834813,195204
OK,49,60,786,49,2014-08-02T02:15:00,2,20835262,195204
OK,38,78,786,38,2014-08-02T02:20:00,2,20835711,195204
OK,41,72,786,41,2014-08-02T02:25:00,0,20836160,195204
OK,41,72,786,41,2014-08-02T02:30:00,0,20836609,195204
OK,41,72,786,41,2014-08-02T02:35:00,0,20837058,195204
OK,41,72,786,41,2014-08-02T02:40:00,0,20837507,195204
OK,41,72,786,41,2014-08-02T02:45:00,0,20837956,195204
OK,41,72,786,41,2014-08-02T02:50:00,0,20838405,195204
OK,41,72,786,41,2014-08-02T02:55:00,0,20838854,195204
OK,41,72,786,41,2014-08-02T03:00:00,0,20839303,195204
OK,41,72,786,41,2014-08-02T03:05:00,0,20839752,195204
OK,41,72,786,41,2014-08-02T03:10:00,0,20840201,195204
OK,41,72,786,41,2014-08-02T03:15:00,0,20840650,195204
OK,41,72,786,41,2014-08-02T03:20:00,0,20841099,195204
OK,41,72,786,41,2014-08-02T03:25:00,0,20841548,195204
OK,41,72,786,41,2014-08-02T03:30:00,0,20841997,195204
OK,41,72,786,41,2014-08-02T03:35:00,0,20842446,195204
OK,41,72,786,41,2014-08-02T03:40:00,0,20842895,195204
OK,41,72,786,41,2014-08-02T03:45:00,0,20843344,195204
OK,41,72,786,41,2014-08-02T03:50:00,0,20843793,195204
OK,41,72,786,41,2014-08-02T03:55:00,0,20844242,195204
OK,41,72,786,41,2014-08-02T04:10:00,0,20845147,195204
OK,55,54,786,55,2014-08-02T04:15:00,1,20845332,195204
OK,55,54,786,55,2014-08-02T04:20:00,1,20845688,195204
OK,66,45,786,66,2014-08-02T04:30:00,1,20846244,195204
OK,66,45,786,66,2014-08-02T04:35:00,0,20846611,195204
OK,66,45,786,66,2014-08-02T04:40:00,0,20846994,195204
OK,66,45,786,66,2014-08-02T04:45:00,0,20847253,195204
OK,66,45,786,66,2014-08-02T04:50:00,0,20847619,195204
OK,66,45,786,66,2014-08-02T05:00:00,0,20848325,195204
OK,38,78,786,38,2014-08-02T05:10:00,1,20848846,195204
OK,38,78,786,38,2014-08-02T05:15:00,1,20849046,195204
OK,38,78,786,38,2014-08-02T05:20:00,0,20849390,195204
OK,42,70,786,42,2014-08-02T05:40:00,0,20850480,195204
OK,42,70,786,42,2014-08-02T05:50:00,0,20851139,195204
OK,72,41,786,72,2014-08-02T05:55:00,4,20851385,195204
OK,45,66,786,45,2014-08-02T06:00:00,3,20851696,195204
OK,50,59,786,50,2014-08-02T06:05:00,2,20852145,195204
OK,119,24,786,119,2014-08-02T06:10:00,2,20852594,195204
OK,183,16,786,183,2014-08-02T06:15:00,1,20853043,195204
OK,183,16,786,183,2014-08-02T06:20:00,0,20853492,195204
OK,77,38,786,77,2014-08-02T06:25:00,1,20853941,195204
OK,77,38,786,77,2014-08-02T06:30:00,1,20854390,195204
OK,95,31,786,95,2014-08-02T06:35:00,0,20854839,195204
OK,75,39,786,75,2014-08-02T06:40:00,1,20855288,195204
OK,75,39,786,75,2014-08-02T06:45:00,0,20855737,195204
OK,75,39,786,75,2014-08-02T06:50:00,0,20856186,195204
OK,74,40,786,74,2014-08-02T06:55:00,1,20856635,195204
OK,74,40,786,74,2014-08-02T07:00:00,1,20857084,195204
OK,36,82,786,36,2014-08-02T07:05:00,1,20857533,195204
OK,38,78,786,38,2014-08-02T07:10:00,2,20857982,195204
OK,43,69,786,43,2014-08-02T07:15:00,5,20858431,195204
OK,45,66,786,45,2014-08-02T07:20:00,3,20858880,195204
OK,44,67,786,44,2014-08-02T07:25:00,0,20859329,195204
OK,75,39,786,75,2014-08-02T07:30:00,3,20859778,195204
OK,75,39,786,75,2014-08-02T07:35:00,3,20860227,195204
OK,49,60,786,49,2014-08-02T07:40:00,1,20860676,195204
OK,49,60,786,49,2014-08-02T07:45:00,1,20861125,195204
OK,49,60,786,49,2014-08-02T07:50:00,0,20861574,195204
OK,42,70,786,42,2014-08-02T07:55:00,1,20862023,195204
OK,42,70,786,42,2014-08-02T08:00:00,1,20862472,195204
OK,42,70,786,42,2014-08-02T08:05:00,0,20862921,195204
OK,42,70,786,42,2014-08-02T08:10:00,0,20863370,195204
OK,75,39,786,75,2014-08-02T08:15:00,1,20863819,195204
OK,86,34,786,86,2014-08-02T08:20:00,3,20864268,195204
OK,86,34,786,86,2014-08-02T08:25:00,2,20864717,195204
OK,86,34,786,86,2014-08-02T08:30:00,0,20865166,195204
OK,72,41,786,72,2014-08-02T08:35:00,3,20865615,195204
OK,73,40,786,73,2014-08-02T08:40:00,2,20866064,195204
OK,46,64,786,46,2014-08-02T08:45:00,1,20866513,195204
OK,63,47,786,63,2014-08-02T08:50:00,2,20866962,195204
OK,83,35,786,83,2014-08-02T08:55:00,2,20867411,195204
OK,47,63,786,47,2014-08-02T09:00:00,3,20867860,195204
OK,47,63,786,47,2014-08-02T09:05:00,1,20868309,195204
OK,67,44,786,67,2014-08-02T09:10:00,2,20868758,195204
OK,47,63,786,47,2014-08-02T09:15:00,4,20869207,195204
OK,47,63,786,47,2014-08-02T09:20:00,5,20869656,195204
OK,67,44,786,67,2014-08-02T09:25:00,4,20870105,195204
OK,91,32,786,91,2014-08-02T09:30:00,2,20870554,195204
OK,83,35,786,83,2014-08-02T09:35:00,5,20871003,195204
OK,79,37,786,79,2014-08-02T09:40:00,6,20871452,195204
OK,94,31,786,94,2014-08-02T09:45:00,3,20871901,195204
OK,93,31,786,93,2014-08-02T09:50:00,4,20872350,195204
OK,84,35,786,84,2014-08-02T09:55:00,5,20872799,195204
OK,78,38,786,78,2014-08-02T10:00:00,4,20873248,195204
OK,79,37,786,79,2014-08-02T10:05:00,3,20873697,195204
OK,49,60,786,49,2014-08-02T10:10:00,3,20874146,195204
OK,84,35,786,84,2014-08-02T10:15:00,2,20874595,195204
OK,84,35,786,84,2014-08-02T10:20:00,4,20875044,195204
OK,94,31,786,94,2014-08-02T10:25:00,3,20875493,195204
OK,94,31,786,94,2014-08-02T10:30:00,7,20875942,195204
OK,86,34,786,86,2014-08-02T10:35:00,6,20876391,195204
OK,84,35,786,84,2014-08-02T10:40:00,3,20876840,195204
OK,80,37,786,80,2014-08-02T10:45:00,1,20877289,195204
OK,101,29,786,101,2014-08-02T10:50:00,3,20877738,195204
OK,98,30,786,98,2014-08-02T10:55:00,4,20878187,195204
OK,67,44,786,67,2014-08-02T11:00:00,5,20878636,195204
OK,56,53,786,56,2014-08-02T11:05:00,4,20879085,195204
OK,59,50,786,59,2014-08-02T11:10:00,3,20879534,195204
OK,71,41,786,71,2014-08-02T11:15:00,4,20879983,195204
OK,94,31,786,94,2014-08-02T11:20:00,2,20880432,195204
OK,68,43,786,68,2014-08-02T11:25:00,2,20880881,195204
OK,65,45,786,65,2014-08-02T11:30:00,2,20881330,195204
OK,86,34,786,86,2014-08-02T11:35:00,2,20881779,195204
OK,85,34,786,85,2014-08-02T11:40:00,1,20882228,195204
OK,79,37,786,79,2014-08-02T11:45:00,5,20882677,195204
OK,49,60,786,49,2014-08-02T11:50:00,5,20883126,195204
OK,61,48,786,61,2014-08-02T11:55:00,4,20883575,195204
OK,88,33,786,88,2014-08-02T12:00:00,4,20884024,195204
OK,88,33,786,88,2014-08-02T12:05:00,4,20884473,195204
OK,70,42,786,70,2014-08-02T12:10:00,6,20884922,195204
OK,85,34,786,85,2014-08-02T12:15:00,9,20885371,195204
OK,88,33,786,88,2014-08-02T12:20:00,7,20885820,195204
OK,59,50,786,59,2014-08-02T12:25:00,5,20886269,195204
OK,59,50,786,59,2014-08-02T12:30:00,5,20886718,195204
OK,47,63,786,47,2014-08-02T12:35:00,3,20887167,195204
OK,47,63,786,47,2014-08-02T12:40:00,3,20887616,195204
OK,60,49,786,60,2014-08-02T12:45:00,1,20888065,195204
OK,60,49,786,60,2014-08-02T12:50:00,1,20888514,195204
OK,60,49,786,60,2014-08-02T12:55:00,0,20888963,195204
OK,72,41,786,72,2014-08-02T13:00:00,2,20889412,195204
OK,78,38,786,78,2014-08-02T13:05:00,5,20889861,195204
OK,81,36,786,81,2014-08-02T13:10:00,4,20890310,195204
OK,86,34,786,86,2014-08-02T13:15:00,3,20890759,195204
OK,85,34,786,85,2014-08-02T13:20:00,3,20891208,195204
OK,85,34,786,85,2014-08-02T13:25:00,4,20891657,195204
OK,93,31,786,93,2014-08-02T13:30:00,3,20892106,195204
OK,101,29,786,101,2014-08-02T13:35:00,1,20892555,195204
OK,81,36,786,81,2014-08-02T13:40:00,1,20893004,195204
OK,65,45,786,65,2014-08-02T13:45:00,2,20893453,195204
OK,72,41,786,72,2014-08-02T13:50:00,2,20893902,195204
OK,69,43,786,69,2014-08-02T13:55:00,2,20894351,195204
OK,45,66,786,45,2014-08-02T14:00:00,0,20894800,195204
OK,45,66,786,45,2014-08-02T14:05:00,0,20895249,195204
OK,83,35,786,83,2014-08-02T14:10:00,3,20895698,195204
OK,78,38,786,78,2014-08-02T14:15:00,2,20896147,195204
OK,80,37,786,80,2014-08-02T14:20:00,3,20896596,195204
OK,81,36,786,81,2014-08-02T14:25:00,2,20897045,195204
OK,84,35,786,84,2014-08-02T14:30:00,4,20897494,195204
OK,89,33,786,89,2014-08-02T14:35:00,7,20897943,195204
OK,86,34,786,86,2014-08-02T14:40:00,5,20898392,195204
OK,84,35,786,84,2014-08-02T14:45:00,3,20898841,195204
OK,49,60,786,49,2014-08-02T14:50:00,3,20899290,195204
OK,81,36,786,81,2014-08-02T14:55:00,3,20899739,195204
OK,100,29,786,100,2014-08-02T15:00:00,1,20900188,195204
OK,112,26,786,112,2014-08-02T15:05:00,1,20900637,195204
OK,85,34,786,85,2014-08-02T15:10:00,3,20901086,195204
OK,66,45,786,66,2014-08-02T15:15:00,2,20901535,195204
OK,94,31,786,94,2014-08-02T15:20:00,2,20901984,195204
OK,78,38,786,78,2014-08-02T15:25:00,3,20902433,195204
OK,52,57,786,52,2014-08-02T15:30:00,4,20902882,195204
OK,42,70,786,42,2014-08-02T15:35:00,3,20903331,195204
OK,74,40,786,74,2014-08-02T15:40:00,1,20903780,195204
OK,74,40,786,74,2014-08-02T15:45:00,0,20904229,195204
OK,79,37,786,79,2014-08-02T15:50:00,1,20904678,195204
OK,79,37,786,79,2014-08-02T15:55:00,5,20905127,195204
OK,84,35,786,84,2014-08-02T16:00:00,4,20905576,195204
OK,96,30,786,96,2014-08-02T16:05:00,2,20906025,195204
OK,106,28,786,106,2014-08-02T16:10:00,3,20906474,195204
OK,62,47,786,62,2014-08-02T16:15:00,6,20906923,195204
OK,57,52,786,57,2014-08-02T16:20:00,7,20907372,195204
OK,65,45,786,65,2014-08-02T16:25:00,4,20907821,195204
OK,75,39,786,75,2014-08-02T16:30:00,2,20908270,195204
OK,77,38,786,77,2014-08-02T16:35:00,1,20908719,195204
OK,67,44,786,67,2014-08-02T16:40:00,6,20909168,195204
OK,68,43,786,68,2014-08-02T16:45:00,5,20909617,195204
OK,52,57,786,52,2014-08-02T16:50:00,3,20910066,195204
OK,71,41,786,71,2014-08-02T16:55:00,2,20910515,195204
OK,94,31,786,94,2014-08-02T17:00:00,1,20910964,195204
OK,68,43,786,68,2014-08-02T17:05:00,1,20911413,195204
OK,82,36,786,82,2014-08-02T17:10:00,3,20911862,195204
OK,83,35,786,83,2014-08-02T17:15:00,2,20912311,195204
OK,74,40,786,74,2014-08-02T17:20:00,4,20912760,195204
OK,50,59,786,50,2014-08-02T17:25:00,5,20913209,195204
OK,49,60,786,49,2014-08-02T17:30:00,2,20913658,195204
OK,82,36,786,82,2014-08-02T17:35:00,1,20914107,195204
OK,63,47,786,63,2014-08-02T17:40:00,2,20914556,195204
OK,61,48,786,61,2014-08-02T17:45:00,3,20915005,195204
OK,74,40,786,74,2014-08-02T17:50:00,3,20915454,195204
OK,98,30,786,98,2014-08-02T17:55:00,5,20915903,195204
OK,98,30,786,98,2014-08-02T18:00:00,3,20916352,195204
OK,79,37,786,79,2014-08-02T18:05:00,0,20916801,195204
OK,79,37,786,79,2014-08-02T18:10:00,0,20917250,195204
OK,72,41,786,72,2014-08-02T18:15:00,2,20917699,195204
OK,72,41,786,72,2014-08-02T18:20:00,2,20918148,195204
OK,72,41,786,72,2014-08-02T18:25:00,0,20918597,195204
OK,46,64,786,46,2014-08-02T18:30:00,1,20919046,195204
OK,46,64,786,46,2014-08-02T18:35:00,1,20919495,195204
OK,89,33,786,89,2014-08-02T18:40:00,1,20919944,195204
OK,89,33,786,89,2014-08-02T18:45:00,1,20920393,195204
OK,81,36,786,81,2014-08-02T18:50:00,1,20920842,195204
OK,81,36,786,81,2014-08-02T18:55:00,3,20921291,195204
OK,85,34,786,85,2014-08-02T19:00:00,1,20921740,195204
OK,85,34,786,85,2014-08-02T19:05:00,1,20922189,195204
OK,85,34,786,85,2014-08-02T19:10:00,0,20922638,195204
OK,60,49,786,60,2014-08-02T19:15:00,2,20923087,195204
OK,59,50,786,59,2014-08-02T19:20:00,4,20923536,195204
OK,59,50,786,59,2014-08-02T19:25:00,2,20923985,195204
OK,80,37,786,80,2014-08-02T19:30:00,1,20924434,195204
OK,69,43,786,69,2014-08-02T19:35:00,2,20924883,195204
OK,59,50,786,59,2014-08-02T19:40:00,2,20925332,195204
OK,60,49,786,60,2014-08-02T19:45:00,1,20925781,195204
OK,87,34,786,87,2014-08-02T19:50:00,1,20926230,195204
OK,87,34,786,87,2014-08-02T19:55:00,3,20926679,195204
OK,100,29,786,100,2014-08-02T20:00:00,2,20927128,195204
OK,44,67,786,44,2014-08-02T20:05:00,1,20927577,195204
OK,44,67,786,44,2014-08-02T20:10:00,1,20928026,195204
OK,77,38,786,77,2014-08-02T20:15:00,0,20928475,195204
OK,77,38,786,77,2014-08-02T20:20:00,0,20928924,195204
OK,77,38,786,77,2014-08-02T20:25:00,0,20929373,195204
OK,59,50,786,59,2014-08-02T20:30:00,1,20929822,195204
OK,59,50,786,59,2014-08-02T20:35:00,1,20930271,195204
OK,81,36,786,81,2014-08-02T20:40:00,1,20930720,195204
OK,79,37,786,79,2014-08-02T20:45:00,2,20931169,195204
OK,69,43,786,69,2014-08-02T20:50:00,2,20931618,195204
OK,108,27,786,108,2014-08-02T20:55:00,2,20932067,195204
OK,141,21,786,141,2014-08-02T21:00:00,0,20932516,195204
OK,141,21,786,141,2014-08-02T21:05:00,0,20932965,195204
OK,141,21,786,141,2014-08-02T21:10:00,0,20933414,195204
OK,48,61,786,48,2014-08-02T21:15:00,1,20933863,195204
OK,66,45,786,66,2014-08-02T21:20:00,1,20934312,195204
OK,74,40,786,74,2014-08-02T21:25:00,2,20934761,195204
OK,67,44,786,67,2014-08-02T21:30:00,2,20935210,195204
OK,52,57,786,52,2014-08-02T21:35:00,0,20935659,195204
OK,57,52,786,57,2014-08-02T21:40:00,3,20936108,195204
OK,57,52,786,57,2014-08-02T21:45:00,2,20936557,195204
OK,62,47,786,62,2014-08-02T21:50:00,1,20937006,195204
OK,70,42,786,70,2014-08-02T21:55:00,2,20937455,195204
OK,78,38,786,78,2014-08-02T22:00:00,0,20937904,195204
OK,69,43,786,69,2014-08-02T22:05:00,3,20938353,195204
OK,66,45,786,66,2014-08-02T22:10:00,2,20938802,195204
OK,85,34,786,85,2014-08-02T22:15:00,3,20939251,195204
OK,85,34,786,85,2014-08-02T22:20:00,3,20939700,195204
OK,60,49,786,60,2014-08-02T22:25:00,1,20940149,195204
OK,60,49,786,60,2014-08-02T22:30:00,1,20940598,195204
OK,71,41,786,71,2014-08-02T22:35:00,0,20941047,195204
OK,68,43,786,68,2014-08-02T22:40:00,2,20941496,195204
OK,68,43,786,68,2014-08-02T22:45:00,0,20941945,195204
OK,68,43,786,68,2014-08-02T22:50:00,0,20942394,195204
OK,68,43,786,68,2014-08-02T22:55:00,0,20942843,195204
OK,68,43,786,68,2014-08-02T23:00:00,0,20943292,195204
OK,113,26,786,113,2014-08-02T23:10:00,4,20943741,195204
OK,113,26,786,113,2014-08-02T23:15:00,4,20944190,195204
OK,88,33,786,88,2014-08-02T23:20:00,1,20944639,195204
OK,67,44,786,67,2014-08-02T23:25:00,2,20945088,195204
OK,73,40,786,73,2014-08-02T23:30:00,2,20945537,195204
OK,73,40,786,73,2014-08-02T23:35:00,2,20945986,195204
OK,46,64,786,46,2014-08-02T23:40:00,0,20946435,195204
OK,66,45,786,66,2014-08-02T23:45:00,3,20946884,195204
OK,72,41,786,72,2014-08-02T23:50:00,5,20947333,195204
OK,72,41,786,72,2014-08-02T23:55:00,3,20947782,195204
OK,69,43,786,69,2014-08-03T00:00:00,0,20948231,195204